Location: Prague
(50.0830°N, 14.4670°E)
Time: 15:52:05
(UTC+02:00)

DOVE 4 - Pass Details

Date: 09 April 2023
Orbit: 584 x 791 km, 97.8° (Epoch: 03 June)

Event Time Altitude Azimuth Distance (km) Brightness Sun altitude
Rises 23:19:12 0° 19° (NNE) 3,043 ? -27.9°
Reaches altitude 10° 23:21:39 10° 28° (NNE) 2,087 ? -28.1°
Enters shadow 23:23:35 22° 44° (NE) 1,422 ? -28.2°
